TimeCST,TemperatureF,Dew PointF,Humidity,Sea Level PressureIn,VisibilityMPH,Wind Direction,Wind SpeedMPH,Gust SpeedMPH,PrecipitationIn,Events,Conditions,WindDirDegrees,DateUTC
12:15 AM,26.2,24.4,93,30.18,10.0,ENE,3.5,-,N/A,,Clear,70,2013-12-09 06:15:00
12:35 AM,26.6,24.8,93,30.19,10.0,Calm,Calm,-,N/A,,Clear,0,2013-12-09 06:35:00
12:55 AM,27.0,25.3,94,30.18,10.0,Calm,Calm,-,N/A,,Clear,0,2013-12-09 06:55:00
1:15 AM,25.7,24.8,96,30.18,10.0,Calm,Calm,-,N/A,,Clear,0,2013-12-09 07:15:00
1:35 AM,25.3,24.1,95,30.19,10.0,Calm,Calm,-,N/A,,Clear,0,2013-12-09 07:35:00
1:55 AM,23.9,23.5,99,30.19,7.0,Calm,Calm,-,N/A,,Clear,0,2013-12-09 07:55:00
2:15 AM,24.8,23.7,96,30.20,10.0,North,4.6,-,N/A,,Clear,10,2013-12-09 08:15:00
2:35 AM,24.1,23.2,96,30.21,10.0,NNE,3.5,-,N/A,,Clear,20,2013-12-09 08:35:00
2:55 AM,24.6,23.5,96,30.20,10.0,NNE,3.5,-,N/A,,Clear,30,2013-12-09 08:55:00
3:15 AM,23.7,23.0,97,30.20,10.0,NNE,6.9,-,N/A,,Clear,20,2013-12-09 09:15:00
3:35 AM,24.8,23.4,94,30.20,10.0,NNE,5.8,-,N/A,,Clear,20,2013-12-09 09:35:00
3:55 AM,24.4,23.0,94,30.20,10.0,North,5.8,-,N/A,,Clear,360,2013-12-09 09:55:00
4:15 AM,23.9,22.8,96,30.20,10.0,North,6.9,-,N/A,,Clear,350,2013-12-09 10:15:00
4:35 AM,25.0,23.2,93,30.20,10.0,NNE,5.8,-,N/A,,Clear,20,2013-12-09 10:35:00
4:55 AM,24.8,23.0,93,30.20,10.0,NNE,5.8,-,N/A,,Clear,30,2013-12-09 10:55:00
5:15 AM,25.3,23.0,91,30.20,10.0,NNE,4.6,-,N/A,,Clear,20,2013-12-09 11:15:00
5:35 AM,24.4,22.8,94,30.21,10.0,NNE,5.8,-,N/A,,Clear,20,2013-12-09 11:35:00
6:55 AM,21.2,21.2,100,30.26,10.0,Calm,Calm,-,N/A,,Clear,0,2013-12-09 12:55:00
7:55 AM,21.2,21.2,100,30.30,7.0,North,4.6,-,N/A,,Clear,350,2013-12-09 13:55:00
8:55 AM,26.6,24.8,93,30.30,7.0,NNE,10.4,-,N/A,,Clear,20,2013-12-09 14:55:00
9:55 AM,30.2,24.8,80,30.31,10.0,NNE,15.0,18.4,N/A,,Overcast,30,2013-12-09 15:55:00
10:55 AM,30.2,24.8,80,30.29,10.0,NNE,15.0,20.7,N/A,,Overcast,30,2013-12-09 16:55:00
11:55 AM,30.2,24.8,80,30.27,10.0,NNE,10.4,-,N/A,,Overcast,30,2013-12-09 17:55:00
12:55 PM,33.8,26.6,75,30.24,10.0,North,6.9,-,N/A,,Overcast,350,2013-12-09 18:55:00
1:55 PM,32.0,24.8,75,30.23,10.0,NNW,12.7,-,N/A,,Overcast,330,2013-12-09 19:55:00
2:55 PM,33.8,24.8,70,30.23,10.0,NNW,13.8,-,N/A,,Scattered Clouds,330,2013-12-09 20:55:00
3:55 PM,32.0,23.0,69,30.25,10.0,North,12.7,18.4,N/A,,Clear,350,2013-12-09 21:55:00
4:55 PM,30.2,21.2,69,30.27,10.0,North,11.5,-,N/A,,Clear,350,2013-12-09 22:55:00
5:55 PM,28.4,19.4,69,30.31,10.0,North,11.5,-,N/A,,Clear,350,2013-12-09 23:55:00
6:55 PM,28.4,19.4,69,30.32,10.0,North,6.9,-,N/A,,Mostly Cloudy,350,2013-12-10 00:55:00
7:55 PM,26.6,19.4,74,30.36,10.0,NNW,8.1,-,N/A,,Overcast,330,2013-12-10 01:55:00
8:55 PM,24.8,19.4,80,30.38,10.0,NW,10.4,-,N/A,,Overcast,320,2013-12-10 02:55:00
10:35 PM,24.8,18.9,78,30.40,10.0,NW,9.2,-,N/A,,Scattered Clouds,320,2013-12-10 04:35:00
10:55 PM,24.8,19.4,80,30.40,10.0,NW,10.4,-,N/A,,Clear,320,2013-12-10 04:55:00
11:15 PM,23.2,19.4,85,30.43,10.0,NNW,10.4,-,N/A,,Clear,330,2013-12-10 05:15:00
11:35 PM,22.8,18.7,84,30.43,10.0,NW,8.1,-,N/A,,Clear,320,2013-12-10 05:35:00
11:55 PM,21.6,17.4,84,30.42,10.0,NW,6.9,-,N/A,,Clear,320,2013-12-10 05:55:00